Lamar, CO

11:22 PM MDT on March 22, 2017 (GMT -0600)
Lamar Municipal

Weather History for KLAA - May, 2013

Change the Weather History Date:

Sunday, May 26, 2013

  Actual Average Record
Temperature  
Mean Temperature 80 °F 66 °F  
Max Temperature 100 °F 81 °F 102 °F (1942)
Min Temperature 60 °F 50 °F 33 °F (1992)
Degree Days  
Heating Degree Days 0 2  
Month to date heating degree days 170 131  
Since 1 July heating degree days 5490 5531  
Cooling Degree Days 15 3  
Month to date cooling degree days 110 39  
Year to date cooling degree days 112 44  
Growing Degree Days 30 (Base 50)    
Moisture  
Dew Point 28 °F    
Average Humidity 32    
Maximum Humidity 60    
Minimum Humidity 4    
Precipitation  
Precipitation 0.00 in 0.09 in 1.47 in (1944)
Month to date precipitation 0.24  
Year to date precipitation 0.57  
Sea Level Pressure  
Sea Level Pressure 29.62 in    
Wind  
Wind Speed 10 mph (South)    
Max Wind Speed 22 mph    
Max Gust Speed 26 mph    
Visibility 10 miles    
Events      
T = Trace of Precipitation, MM = Missing Value Source: NWS Daily Summary

Daily Weather History Graph

Daily Weather History Graph

Search for Another Location

Airport or City:

Trip Planner

Search our weather history database for the weather conditions in past years. The results will help you decide how hot, cold, wet, or windy it might be!

Date:

Astronomy

May. 26, 2013 Rise Set
Actual Time 5:32 AM MDT 8:03 PM MDT
Civil Twilight 5:01 AM MDT 8:34 PM MDT
Nautical Twilight 4:24 AM MDT 9:12 PM MDT
Astronomical Twilight 3:42 AM MDT 9:54 PM MDT
Moon 9:53 PM MDT (5/26) 7:03 AM MDT (5/26)
Length of Visible Light 15h 32m
Length of Day
14h 31m
Waning Gibbous, 96% of the Moon is Illuminated
May 26
Waning Gibbous
May 31
Last Quarter
Jun 8
New
Jun 16
First Quarter
Jun 23
Full

Hourly Weather History & Observations

Time (MDT) Temp. Dew Point Humidity Pressure Visibility Wind Dir Wind Speed Gust Speed Precip Events Conditions
12:53 AM 72.0 °F 48.9 °F 44% 29.70 in 10.0 mi SE 20.7 mph 27.6 mph N/A   Clear
1:53 AM 72.0 °F 46.0 °F 40% 29.71 in 10.0 mi SSE 18.4 mph - N/A   Clear
2:53 AM 66.9 °F 46.9 °F 49% 29.70 in 10.0 mi SE 10.4 mph - N/A   Clear
3:53 AM 66.0 °F 46.9 °F 50% 29.69 in 10.0 mi East 8.1 mph - N/A   Clear
4:53 AM 61.0 °F 46.9 °F 60% 29.70 in 10.0 mi SE 10.4 mph - N/A   Clear
5:53 AM 62.1 °F 48.0 °F 60% 29.69 in 10.0 mi SSE 11.5 mph - N/A   Clear
6:53 AM 68.0 °F 46.0 °F 45% 29.68 in 10.0 mi South 5.8 mph - N/A   Clear
7:53 AM 71.1 °F 46.9 °F 42% 29.69 in 10.0 mi Calm Calm - N/A   Clear
8:53 AM 78.1 °F 37.0 °F 23% 29.69 in 10.0 mi West 12.7 mph - N/A   Clear
9:53 AM 84.0 °F 27.0 °F 13% 29.68 in 10.0 mi West 13.8 mph - N/A   Clear
10:53 AM 89.1 °F 23.0 °F 9% 29.66 in 10.0 mi West 9.2 mph - N/A   Clear
11:53 AM 93.0 °F 21.9 °F 8% 29.65 in 10.0 mi Variable 4.6 mph - N/A   Clear
12:53 PM 95.0 °F 23.0 °F 8% 29.63 in 10.0 mi NW 8.1 mph - N/A   Clear
1:53 PM 98.1 °F 15.1 °F 5% 29.60 in 10.0 mi SW 17.3 mph 21.9 mph N/A   Clear
2:53 PM 99.0 °F 14.0 °F 5% 29.58 in 10.0 mi SW 17.3 mph 23.0 mph N/A   Clear
3:53 PM 96.1 °F 16.0 °F 5% 29.56 in 10.0 mi Variable 5.8 mph - N/A   Clear
4:53 PM 95.0 °F 21.9 °F 7% 29.55 in 10.0 mi East 8.1 mph 20.7 mph N/A   Clear
5:53 PM 97.0 °F 10.0 °F 4% 29.53 in 10.0 mi South 12.7 mph 20.7 mph N/A   Clear
6:53 PM 95.0 °F 7.0 °F 4% 29.52 in 10.0 mi South 12.7 mph - N/A   Clear
7:53 PM 84.0 °F 12.9 °F 7% 29.54 in 10.0 mi South 8.1 mph - N/A   Clear
8:53 PM 70.0 °F 16.0 °F 13% 29.55 in 10.0 mi SSW 8.1 mph - N/A   Clear
9:53 PM 68.0 °F 18.0 °F 15% 29.54 in 10.0 mi South 6.9 mph - N/A   Clear
10:53 PM 68.0 °F 17.1 °F 14% 29.55 in 10.0 mi SSW 13.8 mph - N/A   Clear
11:53 PM 64.0 °F 14.0 °F 14% 29.55 in 10.0 mi West 5.8 mph - N/A   Clear